This is the latest recevied weather packets stored in our database for station/object BRIVER. If no packets are shown the sender has not sent any weather packets the latest 1 day(s).
| Time | Temp. | Humidity | Pressure | Rain* | Wind** | Luminosity | Snow |
|---|---|---|---|---|---|---|---|
| 1778044829 | 10.56° C | 93% | 1015.3 hPa | 0 mm | 2.68 m/s, 254° | - | - |
| 1778044529 | 10.56° C | 93% | 1015.2 hPa | 0 mm | 2.24 m/s, 257° | - | - |
| 1778044410 | 10.56° C | 93% | 1015.2 hPa | 0 mm | 1.79 m/s, 245° | - | - |
| 1778044229 | 10.56° C | 92% | 1015.2 hPa | 0 mm | 1.34 m/s, 262° | - | - |
| 1778043929 | 10.56° C | 93% | 1015.2 hPa | 0 mm | 0.45 m/s, 161° | - | - |
| 1778043870 | 10.56° C | 92% | 1015.2 hPa | 0 mm | 0.45 m/s, 161° | - | - |
| 1778043629 | 10.56° C | 92% | 1015.1 hPa | 0 mm | 0 m/s | - | - |
| 1778043329 | 10.56° C | 92% | 1015 hPa | 0 mm | 0 m/s | - | - |
| 1778043029 | 10.56° C | 92% | 1015 hPa | 0 mm | 0 m/s | - | - |
| 1778042790 | 10.56° C | 92% | 1014.9 hPa | 0 mm | 0 m/s | - | - |
| 1778042729 | 10.56° C | 92% | 1014.9 hPa | 0 mm | 0 m/s | - | - |
| 1778042429 | 11.11° C | 92% | 1014.8 hPa | 0 mm | 0 m/s | - | - |
| 1778042250 | 11.11° C | 92% | 1014.7 hPa | 0 mm | 0.45 m/s, 159° | - | - |
| 1778042129 | 11.11° C | 92% | 1014.7 hPa | 0 mm | 0.45 m/s, 159° | - | - |
| 1778041829 | 11.11° C | 92% | 1014.6 hPa | 0 mm | 0.45 m/s, 159° | - | - |
| 1778041710 | 11.11° C | 92% | 1014.6 hPa | 0 mm | 0.89 m/s, 159° | - | - |
| 1778041529 | 11.11° C | 92% | 1014.6 hPa | 0 mm | 0.89 m/s, 159° | - | - |
| 1778041229 | 11.11° C | 92% | 1014.7 hPa | 0 mm | 1.34 m/s, 159° | - | - |
| 1778041170 | 11.11° C | 91% | 1014.6 hPa | 0 mm | 1.34 m/s, 159° | - | - |
| 1778040929 | 11.11° C | 92% | 1014.6 hPa | 0 mm | 0.89 m/s, 159° | - | - |
| 1778040629 | 11.11° C | 92% | 1014.7 hPa | 0 mm | 0.89 m/s, 159° | - | - |
| 1778040329 | 11.11° C | 91% | 1014.6 hPa | 0 mm | 0.89 m/s, 159° | - | - |
| 1778040090 | 11.11° C | 91% | 1014.6 hPa | 0 mm | 0.89 m/s, 159° | - | - |
| 1778040029 | 11.11° C | 91% | 1014.5 hPa | 0 mm | 0.89 m/s, 159° | - | - |
| 1778039729 | 11.11° C | 91% | 1014.6 hPa | 0 mm | 1.79 m/s, 159° | - | - |
* Rain latest hour (hover to see other rain measurements)
** Current wind speed in m/s (hover to see current wind gust speed)